DW6863 Weather Reports


Display with metric or nautical units.
time (UTC)temp
F
wind
direction
speed
MPH
gust
MPH
rain 1hr
in
rain 24hr
in
rain mn
in
humidity
%
barometer
mb
20220518235009 53 270 13.0 18.0 0.00 0.00 0.00 74 1018.5
20220518234506 54 270 14.0 18.0 0.00 0.00 0.00 74 1018.5
20220518234005 54 270 14.0 20.0 0.00 0.00 0.00 73 1018.2
20220518233504 0 0 0.0 0.0 0.00 0.00 0.00 1
20220518233004 55 270 12.0 12.0 0.00 0.00 0.00 72 1018.2
20220518232508 55 270 10.0 15.0 0.00 0.00 0.00 71 1018.5
20220518232006 55 270 15.0 15.0 0.00 0.00 0.00 70 1018.5
20220518231505 55 270 10.0 13.0 0.00 0.00 0.00 70 1018.5
20220518231003 55 270 7.0 11.0 0.00 0.00 0.00 69 1018.5
20220518230502 55 225 9.0 12.0 0.00 0.00 0.00 68 1018.8
20220518230001 55 270 7.0 15.0 0.00 0.00 0.00 68 1018.8
20220518225507 56 270 8.0 11.0 0.00 0.00 0.00 69 1018.2
20220518225005 56 270 13.0 14.0 0.00 0.00 0.00 69 1018.5
20220518224504 56 270 9.0 13.0 0.00 0.00 0.00 70 1018.5
20220518224003 55 270 12.0 21.0 0.00 0.00 0.00 70 1018.5
20220518223502 55 247 7.0 7.0 0.00 0.00 0.00 72 1018.5
20220518223006 55 270 6.0 17.0 0.00 0.00 0.00 73 1018.5
20220518222504 0 0 0.0 0.0 0.00 0.00 0.00 1
20220518222003 54 270 17.0 17.0 0.00 0.00 0.00 73 1018.2
20220518221502 55 270 16.0 16.0 0.00 0.00 0.00 73 1018.2
20220518221001 55 270 10.0 11.0 0.00 0.00 0.00 72 1018.2
20220518220506 55 292 11.0 16.0 0.00 0.00 0.00 72 1017.8
20220518220005 55 270 11.0 17.0 0.00 0.00 0.00 72 1017.8
20220518215502 55 247 13.0 17.0 0.00 0.00 0.00 72 1017.8
20220518215001 55 270 9.0 15.0 0.00 0.00 0.00 70 1017.8
20220518214506 55 247 12.0 13.0 0.00 0.00 0.00 69 1018.2
20220518214004 55 270 10.0 11.0 0.00 0.00 0.00 69 1018.2
20220518213503 55 270 5.0 7.0 0.00 0.00 0.00 69 1018.2
20220518213002 56 270 9.0 12.0 0.00 0.00 0.00 69 1018.2
20220518212506 56 270 9.0 12.0 0.00 0.00 0.00 68 1018.2
20220518212005 57 270 6.0 11.0 0.00 0.00 0.00 68 1018.2
20220518211503 56 270 5.0 8.0 0.00 0.00 0.00 69 1017.8
20220518211002 56 270 5.0 10.0 0.00 0.00 0.00 69 1018.2
20220518210507 56 270 10.0 10.0 0.00 0.00 0.00 69 1018.2
20220518210005 55 247 4.0 10.0 0.00 0.00 0.00 70 1018.2
20220518205504 55 270 5.0 9.0 0.00 0.00 0.00 70 1018.2
20220518205003 0 0 0.0 9.0 0.00 0.00 0.00 1
20220518204507 55 270 8.0 12.0 0.00 0.00 0.00 70 1017.8
20220518204006 56 247 12.0 17.0 0.00 0.00 0.00 72 1017.5
20220518203504 56 202 6.0 7.0 0.00 0.00 0.00 73 1017.5
20220518203003 55 270 6.0 10.0 0.00 0.00 0.00 73 1017.5
20220518202502 55 270 8.0 10.0 0.00 0.00 0.00 72 1017.5
20220518202006 54 270 10.0 11.0 0.00 0.00 0.00 71 1017.5
20220518201506 54 270 10.0 12.0 0.00 0.00 0.00 71 1017.1
20220518201003 54 270 9.0 11.0 0.00 0.00 0.00 71 1017.1
20220518200502 54 270 8.0 8.0 0.00 0.00 0.00 70 1017.5
20220518200001 54 315 5.0 11.0 0.00 0.00 0.00 70 1017.5
20220518195506 54 270 5.0 10.0 0.00 0.00 0.00 70 1017.1
20220518195004 0 0 0.0 0.0 0.00 0.00 0.00 1
20220518194502 54 247 3.0 7.0 0.00 0.00 0.00 69 1017.1
20220518194007 55 270 4.0 6.0 0.00 0.00 0.00 70 1017.5
20220518193505 55 247 3.0 5.0 0.00 0.00 0.00 71 1017.1
20220518193004 54 270 4.0 9.0 0.00 0.00 0.00 72 1017.1
20220518192503 54 292 4.0 6.0 0.00 0.00 0.00 73 1016.8
20220518192002 54 270 2.0 3.0 0.00 0.00 0.00 76 1017.1
20220518191506 53 292 1.0 4.0 0.00 0.00 0.00 77 1016.8
20220518191005 52 292 1.0 3.0 0.00 0.00 0.00 77 1016.8
20220518190504 52 270 3.0 4.0 0.00 0.00 0.00 77 1016.8
20220518190002 52 180 3.0 3.0 0.00 0.00 0.00 78 1017.1
20220518185507 52 157 1.0 3.0 0.00 0.00 0.00 78 1016.8
20220518185004 52 292 2.0 4.0 0.00 0.00 0.00 79 1016.8
20220518184502 52 202 3.0 5.0 0.00 0.00 0.00 79 1016.8
20220518184007 52 315 1.0 5.0 0.00 0.00 0.00 80 1016.8
20220518183505 52 292 3.0 4.0 0.00 0.00 0.00 81 1016.8
20220518183003 52 247 2.0 5.0 0.00 0.00 0.00 83 1016.5
20220518182502 51 247 3.0 5.0 0.00 0.00 0.00 86 1016.5
20220518182001 51 202 3.0 4.0 0.00 0.00 0.00 88 1016.5
20220518181506 51 202 5.0 5.0 0.00 0.00 0.00 89 1016.5
20220518181005 51 202 4.0 7.0 0.00 0.00 0.00 89 1016.5
20220518180503 51 135 7.0 8.0 0.00 0.00 0.00 89 1016.1
20220518180001 51 135 3.0 8.0 0.00 0.00 0.00 89 1016.1
20220518175506 51 135 6.0 8.0 0.00 0.00 0.00 90 1015.8
20220518175005 51 180 4.0 6.0 0.00 0.00 0.00 90 1015.8
20220518174504 51 157 5.0 7.0 0.00 0.00 0.00 90 1015.8
20220518174002 51 135 2.0 5.0 0.00 0.00 0.00 90 1015.8
20220518173501 51 90 3.0 8.0 0.00 0.00 0.00 90 1015.8
20220518173006 51 180 4.0 8.0 0.00 0.00 0.00 90 1015.8
20220518172505 50 135 5.0 7.0 0.00 0.00 0.00 90 1015.8
20220518172004 50 202 3.0 8.0 0.00 0.00 0.00 90 1015.8
20220518171502 50 135 4.0 8.0 0.00 0.00 0.00 91 1015.4
20220518171001 50 202 3.0 9.0 0.00 0.00 0.00 91 1015.4
20220518170505 50 180 4.0 8.0 0.00 0.00 0.00 91 1015.4
20220518170004 50 202 3.0 8.0 0.00 0.00 0.00 91 1015.4
20220518165503 50 180 5.0 9.0 0.00 0.00 0.00 91 1015.4
20220518165001 50 180 7.0 8.0 0.00 0.00 0.00 90 1015.4
20220518164506 50 180 5.0 9.0 0.00 0.00 0.00 90 1015.4
20220518164004 50 180 4.0 9.0 0.00 0.00 0.00 90 1015.4
20220518163503 50 202 5.0 13.0 0.00 0.00 0.00 90 1015.1
20220518163002 50 180 4.0 11.0 0.00 0.00 0.00 89 1015.1
20220518162506 50 202 7.0 12.0 0.00 0.00 0.00 89 1015.1
20220518162005 50 180 7.0 12.0 0.00 0.00 0.00 89 1014.8
20220518161504 50 180 4.0 11.0 0.00 0.00 0.00 89 1014.8
20220518161008 50 180 6.0 9.0 0.00 0.00 0.00 89 1014.8
20220518160506 50 225 5.0 9.0 0.00 0.00 0.00 89 1014.8
20220518160005 50 225 6.0 13.0 0.00 0.00 0.00 88 1014.4
20220518155503 50 157 5.0 13.0 0.00 0.00 0.00 88 1014.4
20220518155002 50 225 4.0 14.0 0.00 0.00 0.00 88 1014.1
20220518154531 50 180 9.0 13.0 0.00 0.00 0.00 88 1014.1
20220518154006 50 180 10.0 14.0 0.00 0.00 0.00 88 1014.1
20220518153504 50 202 8.0 12.0 0.00 0.00 0.00 89 1014.1
20220518153003 50 157 6.0 15.0 0.00 0.00 0.00 89 1014.1
20220518152506 50 180 7.0 15.0 0.00 0.00 0.00 88 1014.1
20220518152005 50 202 9.0 12.0 0.00 0.00 0.00 88 1014.1
20220518151502 50 202 9.0 15.0 0.00 0.00 0.00 88 1014.1
20220518151001 49 180 8.0 12.0 0.00 0.00 0.00 88 1014.1
20220518150506 49 180 7.0 15.0 0.00 0.00 0.00 88 1013.8
20220518150005 49 135 5.0 18.0 0.00 0.00 0.00 88 1013.4
20220518145504 49 135 8.0 11.0 0.00 0.00 0.00 88 1013.4
20220518145003 49 135 10.0 19.0 0.00 0.00 0.00 88 1013.4
20220518144501 49 202 9.0 15.0 0.00 0.00 0.00 88 1013.4
20220518144007 49 135 7.0 14.0 0.00 0.00 0.00 88 1013.1
20220518143504 49 135 6.0 12.0 0.00 0.00 0.00 88 1013.1
20220518143003 49 157 4.0 16.0 0.00 0.00 0.00 88 1013.1
20220518142502 49 135 9.0 13.0 0.00 0.00 0.00 88 1012.7
20220518142007 49 180 11.0 21.0 0.00 0.00 0.00 88 1012.7
20220518141505 49 135 7.0 15.0 0.00 0.00 0.00 87 1012.7
20220518141004 49 180 6.0 14.0 0.00 0.00 0.00 88 1013.1
20220518140503 49 135 5.0 11.0 0.00 0.00 0.00 87 1013.1
20220518140007 49 135 4.0 13.0 0.00 0.00 0.00 87 1013.1
20220518135506 49 135 5.0 13.0 0.00 0.00 0.00 87 1013.1
20220518135004 49 45 6.0 17.0 0.00 0.00 0.00 87 1012.7
20220518134503 49 135 4.0 12.0 0.00 0.00 0.00 87 1013.1
20220518134002 49 180 5.0 13.0 0.00 0.00 0.00 87 1012.7
20220518133506 49 135 4.0 14.0 0.00 0.00 0.00 87 1013.1
20220518133005 48 180 13.0 20.0 0.00 0.00 0.00 88 1012.7
20220518132503 48 112 7.0 12.0 0.00 0.00 0.00 88 1012.7
20220518132002 48 135 5.0 13.0 0.00 0.00 0.00 88 1012.7
20220518131507 48 157 5.0 15.0 0.00 0.00 0.00 88 1012.7
20220518131005 48 135 6.0 15.0 0.00 0.00 0.00 88 1012.7
20220518130503 48 180 7.0 20.0 0.00 0.00 0.00 88 1012.7
20220518130002 48 135 4.0 18.0 0.00 0.00 0.00 88 1013.1
20220518125507 48 270 5.0 15.0 0.00 0.00 0.00 88 1013.1
20220518125005 48 112 8.0 22.0 0.00 0.00 0.00 88 1012.4
20220518124504 48 135 7.0 20.0 0.00 0.00 0.00 87 1013.4
20220518124003 48 135 6.0 18.0 0.00 0.00 0.00 88 1013.4
20220518123501 48 180 8.0 24.0 0.00 0.00 0.00 88 1013.4
20220518123006 48 135 11.0 22.0 0.00 0.00 0.00 89 1013.1
20220518122505 48 135 10.0 25.0 0.00 0.00 0.00 90 1013.1
20220518122004 48 135 10.0 24.0 0.00 0.00 0.00 90 1013.8
20220518121502 48 135 14.0 25.0 0.00 0.00 0.00 89 1013.4
20220518121001 48 135 6.0 22.0 0.00 0.00 0.00 88 1013.8
20220518120506 48 135 16.0 25.0 0.00 0.00 0.00 88 1013.8
20220518120003 48 157 11.0 21.0 0.00 0.00 0.00 88 1013.8
20220518115502 48 135 15.0 22.0 0.00 0.00 0.00 88 1014.1
20220518115007 48 135 11.0 19.0 0.00 0.00 0.00 89 1014.4
20220518114506 48 135 10.0 19.0 0.00 0.00 0.00 89 1014.4
20220518114004 48 135 8.0 16.0 0.00 0.00 0.00 88 1014.8
20220518113503 48 112 11.0 22.0 0.00 0.00 0.00 88 1014.8
20220518113007 48 90 12.0 19.0 0.00 0.00 0.00 88 1014.8
20220518112506 48 135 12.0 21.0 0.00 0.00 0.00 89 1014.8
20220518112005 47 135 11.0 22.0 0.00 0.00 0.00 89 1014.8
20220518111503 47 135 15.0 22.0 0.00 0.00 0.00 89 1014.8
20220518111002 47 135 12.0 19.0 0.00 0.00 0.00 89 1014.8
20220518110507 48 135 10.0 19.0 0.00 0.00 0.00 89 1015.4
20220518110006 48 90 10.0 21.0 0.00 0.00 0.00 88 1015.4
20220518105504 48 135 9.0 17.0 0.00 0.00 0.00 87 1015.8
20220518105003 48 135 7.0 16.0 0.00 0.00 0.00 86 1015.8
20220518104502 48 135 11.0 15.0 0.00 0.00 0.00 85 1015.8
20220518104007 48 135 9.0 18.0 0.00 0.00 0.00 85 1015.8
20220518103505 49 135 8.0 17.0 0.00 0.00 0.00 85 1016.1
20220518103003 48 135 8.0 17.0 0.00 0.00 0.00 85 1016.5
20220518102502 48 135 11.0 20.0 0.00 0.00 0.00 86 1016.1
20220518102007 48 135 12.0 18.0 0.00 0.00 0.00 86 1016.1
20220518101506 48 135 9.0 22.0 0.00 0.00 0.00 85 1015.8
20220518101005 49 135 10.0 19.0 0.00 0.00 0.00 85 1015.8
20220518100503 49 135 10.0 19.0 0.00 0.00 0.00 85 1016.1
20220518100003 49 135 10.0 15.0 0.00 0.00 0.00 86 1016.1
20220518095502 49 135 8.0 15.0 0.00 0.00 0.00 86 1016.1
20220518095007 49 90 4.0 12.0 0.00 0.00 0.00 86 1016.8
20220518094001 49 135 5.0 10.0 0.00 0.00 0.00 85 1016.8
20220518093506 49 90 4.0 6.0 0.00 0.00 0.00 85 1017.1
20220518093005 49 180 0.0 4.0 0.00 0.00 0.00 84 1017.1
20220518092504 49 135 0.0 4.0 0.00 0.00 0.00 83 1017.5
20220518092003 49 135 1.0 7.0 0.00 0.00 0.00 83 1017.5
20220518091502 49 135 4.0 8.0 0.00 0.00 0.00 83 1017.1
20220518091001 50 135 2.0 6.0 0.00 0.00 0.00 84 1017.1
20220518090507 50 90 1.0 5.0 0.00 0.00 0.00 84 1017.1
20220518090006 50 135 2.0 4.0 0.00 0.00 0.00 84 1017.1
20220518085504 50 135 4.0 6.0 0.00 0.00 0.00 83 1017.5
20220518085002 50 157 3.0 5.0 0.00 0.00 0.00 83 1017.5
20220518084507 50 135 2.0 6.0 0.00 0.00 0.00 83 1017.5
20220518084006 50 135 5.0 7.0 0.00 0.00 0.00 82 1017.8
20220518083504 50 90 3.0 5.0 0.00 0.00 0.00 81 1017.8
20220518083003 50 90 2.0 4.0 0.00 0.00 0.00 80 1017.8
20220518082507 50 112 3.0 6.0 0.00 0.00 0.00 80 1018.2
20220518082005 50 135 5.0 7.0 0.00 0.00 0.00 79 1018.5
20220518081504 50 135 4.0 7.0 0.00 0.00 0.00 79 1018.5
20220518081003 50 135 2.0 6.0 0.00 0.00 0.00 78 1018.5
20220518080502 50 135 5.0 7.0 0.00 0.00 0.00 78 1018.5
20220518080006 50 135 5.0 9.0 0.00 0.00 0.00 78 1018.8
20220518075504 50 135 6.0 8.0 0.00 0.00 0.00 78 1018.8
20220518075003 51 135 7.0 8.0 0.00 0.00 0.00 77 1019.2
20220518074502 51 135 6.0 8.0 0.00 0.00 0.00 77 1019.2
20220518074006 51 135 8.0 10.0 0.00 0.00 0.00 77 1019.2
20220518073504 51 135 4.0 8.0 0.00 0.00 0.00 77 1019.5
20220518073003 51 135 6.0 9.0 0.00 0.00 0.00 77 1019.5
20220518072501 51 112 7.0 15.0 0.00 0.00 0.00 77 1019.9
20220518072006 51 90 5.0 12.0 0.00 0.00 0.00 76 1019.5
20220518071505 51 90 7.0 12.0 0.00 0.00 0.00 76 1019.5
20220518071004 51 112 4.0 7.0 0.00 0.00 0.00 76 1019.9
20220518070503 50 90 5.0 10.0 0.00 0.00 0.00 77 1019.9
20220518070008 50 90 6.0 8.0 0.00 0.00 0.00 77 1020.2
20220518065506 50 135 4.0 11.0 0.00 0.00 0.00 78 1020.2
20220518065005 50 135 6.0 9.0 0.00 0.00 0.00 80 1020.2
20220518064504 50 90 5.0 9.0 0.00 0.00 0.00 82 1020.2
20220518064021 49 112 3.0 7.0 0.00 0.00 0.00 84 1020.5
20220518063508 49 135 2.0 7.0 0.00 0.00 0.00 86 1020.5
20220518063006 48 90 2.0 4.0 0.00 0.00 0.00 86 1020.5
20220518062505 48 112 1.0 2.0 0.00 0.00 0.00 85 1020.9
20220518062004 48 112 1.0 2.0 0.00 0.00 0.00 85 1020.9
20220518061503 48 112 0.0 0.0 0.00 0.00 0.00 84 1021.2
20220518061007 49 112 0.0 3.0 0.00 0.00 0.00 84 1021.2
20220518060505 49 135 0.0 3.0 0.00 0.00 0.00 84 1021.2
20220518060003 49 135 0.0 2.0 0.00 0.00 0.00 83 1021.5
20220518055503 49 45 0.0 2.0 0.00 0.00 0.00 84 1021.5
20220518055007 49 45 0.0 0.0 0.00 0.00 0.00 84 1021.5
20220518054506 49 45 0.0 1.0 0.00 0.00 0.00 84 1021.5
20220518054005 49 90 0.0 2.0 0.00 0.00 0.00 85 1021.9
20220518053503 49 90 0.0 3.0 0.00 0.00 0.00 86 1021.9
20220518053007 48 45 0.0 2.0 0.00 0.00 0.00 86 1021.9
20220518052505 48 90 1.0 4.0 0.00 0.00 0.00 87 1021.9
20220518052005 48 90 0.0 3.0 0.00 0.00 0.00 87 1021.9
20220518051504 48 67 0.0 1.0 0.00 0.00 0.00 88 1022.2
20220518051002 48 67 2.0 2.0 0.00 0.00 0.00 88 1022.2
20220518050507 48 67 1.0 2.0 0.00 0.00 0.00 88 1022.2
20220518050005 48 67 0.0 2.0 0.00 0.00 0.00 88 1022.2
20220518045504 48 67 1.0 2.0 0.00 0.00 0.00 88 1022.6
20220518045003 49 67 2.0 3.0 0.00 0.00 0.00 88 1022.6
20220518044502 49 67 1.0 2.0 0.00 0.00 0.00 88 1022.6
20220518044007 49 67 2.0 2.0 0.00 0.00 0.00 87 1022.9
20220518043505 49 67 2.0 2.0 0.00 0.00 0.00 87 1022.9
20220518043004 49 67 2.0 2.0 0.00 0.00 0.00 87 1022.9
20220518042503 49 67 1.0 2.0 0.00 0.00 0.00 87 1022.9
20220518042007 49 67 2.0 2.0 0.00 0.00 0.00 87 1022.9
20220518041505 50 67 1.0 2.0 0.00 0.00 0.00 86 1022.9
20220518041004 50 67 2.0 2.0 0.00 0.00 0.00 85 1022.9
20220518040503 50 67 1.0 2.0 0.00 0.00 0.00 84 1023.2
20220518040007 50 67 1.0 2.0 0.00 0.00 0.00 84 1023.2
20220518035506 50 67 2.0 2.0 0.00 0.00 0.00 83 1023.2
20220518035005 50 67 1.0 2.0 0.00 0.00 0.00 83 1023.2
20220518034503 51 67 0.0 2.0 0.00 0.00 0.00 82 1023.2
20220518034008 51 67 1.0 2.0 0.00 0.00 0.00 82 1023.2
20220518033506 51 67 0.0 1.0 0.00 0.00 0.00 81 1023.6
20220518033005 51 67 0.0 2.0 0.00 0.00 0.00 80 1023.6
20220518032504 51 67 2.0 2.0 0.00 0.00 0.00 79 1023.6
20220518032002 51 45 0.0 0.0 0.00 0.00 0.00 79 1023.6
20220518031507 52 45 0.0 0.0 0.00 0.00 0.00 78 1023.9
20220518031006 52 45 0.0 2.0 0.00 0.00 0.00 77 1023.9
20220518030505 52 45 0.0 2.0 0.00 0.00 0.00 76 1023.9
20220518030004 52 90 2.0 3.0 0.00 0.00 0.00 75 1023.9
20220518025503 52 67 1.0 2.0 0.00 0.00 0.00 75 1024.3
20220518025007 53 45 0.0 2.0 0.00 0.00 0.00 75 1024.3
20220518024506 53 45 1.0 2.0 0.00 0.00 0.00 74 1024.3
20220518024005 53 45 1.0 3.0 0.00 0.00 0.00 73 1024.3
20220518023503 53 360 0.0 0.0 0.00 0.00 0.00 73 1024.6
20220518023008 53 360 0.0 0.0 0.00 0.00 0.00 72 1024.3
20220518022507 54 360 0.0 0.0 0.00 0.00 0.00 71 1024.3
20220518022005 54 360 0.0 0.0 0.00 0.00 0.00 70 1024.6
20220518021502 54 360 0.0 0.0 0.00 0.00 0.00 69 1024.6
20220518021002 55 45 0.0 1.0 0.00 0.00 0.00 69 1024.6
20220518020507 55 292 0.0 3.0 0.00 0.00 0.00 68 1024.6
20220518020005 56 67 2.0 4.0 0.00 0.00 0.00 65 1024.6
20220518015504 56 45 2.0 4.0 0.00 0.00 0.00 63 1024.6
20220518015001 56 315 2.0 3.0 0.00 0.00 0.00 63 1024.9
20220518014506 56 315 0.0 3.0 0.00 0.00 0.00 62 1024.6
20220518014005 56 315 0.0 3.0 0.00 0.00 0.00 61 1024.6
20220518013503 56 247 2.0 3.0 0.00 0.00 0.00 62 1024.6
20220518013002 56 247 3.0 4.0 0.00 0.00 0.00 62 1024.9
20220518012507 55 270 4.0 5.0 0.00 0.00 0.00 64 1024.9
20220518012006 55 270 4.0 5.0 0.00 0.00 0.00 65 1024.9
20220518011505 56 270 5.0 6.0 0.00 0.00 0.00 64 1024.9
20220518011004 56 270 4.0 6.0 0.00 0.00 0.00 65 1024.9
20220518010503 56 270 4.0 6.0 0.00 0.00 0.00 65 1025.3
20220518010007 56 270 5.0 6.0 0.00 0.00 0.00 64 1025.3
20220518005506 56 270 4.0 5.0 0.00 0.00 0.00 64 1025.3
20220518005004 56 270 4.0 5.0 0.00 0.00 0.00 65 1025.3
20220518004502 56 270 4.0 5.0 0.00 0.00 0.00 65 1025.3
20220518004007 56 270 4.0 6.0 0.00 0.00 0.00 64 1025.6
20220518003505 56 270 5.0 6.0 0.00 0.00 0.00 64 1025.6
20220518003003 56 270 5.0 6.0 0.00 0.00 0.00 63 1025.6
20220518002507 57 270 5.0 6.0 0.00 0.00 0.00 60 1025.6
20220518002006 57 270 3.0 6.0 0.00 0.00 0.00 59 1025.9
20220518001505 58 270 5.0 6.0 0.00 0.00 0.00 58 1025.9
20220518001004 60 270 3.0 5.0 0.00 0.00 0.00 54 1025.9
20220518000502 60 225 2.0 3.0 0.00 0.00 0.00 53 1025.9
20220518000007 60 202 2.0 3.0 0.00 0.00 0.00 54 1025.9
20220517235505 60 225 1.0 2.0 0.00 0.00 0.00 55 1025.9